Baudette, MN

23:07 CST le 22 février 2017 (GMT -0600)
Baudette International | | Change Station

Alt. 1083 ft 48.73 °N, 94.61 °W | Updated 14 minutes ago

Mostly Cloudy
Nuageux
25 ° F
Paraît 14 ° F
N
13
Vent Variable Vent de NNO

Aujourd'hui
Haut(e) -- | Bas -- ° F
--% Risque de précip.
Hier
Haut(e) -- | Bas -- ° F
Precip. -- pouce
Pression 29.93 pouce
Visibilité 10.0 Miles terrestres
Nuages Nuageux 2300 ft
Refroidissement éolien 14 ° F
Point de rosée 17 ° F
Humidité 72%
Précipitations 0.04 pouce
Profondeur de la couche neigeuse Non disponible.
7:12 AM 5:51 PM
Lune descendante, 13% visible
METAR KBDE 230453Z AUTO 34011KT 10SM BKN023 M04/M08 A2988 RMK AO2 SLP134 T10391083
Pression 29.93 pouce
Visibilité 10.0 Miles terrestres
Nuages Nuageux 2300 ft
Refroidissement éolien 14 ° F
Point de rosée 17 ° F
Humidité 72%
Précipitations 0.04 pouce
Profondeur de la couche neigeuse Non disponible.
7:12 AM 5:51 PM
Lune descendante, 13% visible
METAR KBDE 230453Z AUTO 34011KT 10SM BKN023 M04/M08 A2988 RMK AO2 SLP134 T10391083

Get Your Daily Forecast Email!

Thanks for signing up!

Be on the lookout for a verification email in your inbox.

You'll start receiving the daily forecast at 8 AM.

×

10-Day Weather Forecast

Almanac

Astronomie

Feb. 22, 2017 Lever Coucher
Temps réel
Crépuscule civil
Crépuscule nautique
Crépuscule astronomique
Lune
Durée de lumière visible
Longueur du jour
Tomorrow will be .
, % of the Moon is Illuminated

Extrêmes aujourd'hui

State Highs State Lows

Community

WunderPhotos

Upload Photos

1,962,540 Photos téléchargées !

WunderBlog® & News

Nearby

Qualité de l'air

  Qualité de l'air Indice de la qualité de l'air Polluant
Not available.

Épaisseur de neige

Station Depth Altitude

Activité sismique

Ville Distance Mag. Time & Date
Minimum magnitude displayed is 2.5.

Températures des eaux côtières

Lieu Température

Stations

Stations météo à proximité

Emplacement de la station Température Refroidissement éolien Point de rosée Humidité Vent Precip. Alt. Mise à jour Type
                   

Watches & Warnings

There are currently no watches in effect.